Overview Statistics Trail Chart Weather Telemetry Raw packets
 

This is the latest recevied weather packets stored in our database for station/object CE1JFB-10. If no packets are shown the sender has not sent any weather packets the latest 10 day(s).

<< 5 6 7 8 9 >>
Time Temp. Humidity Pressure Rain* Wind** Luminosity Snow
1777530668 20° C 59% 1009.6 hPa - - - -
1777527068 20.56° C 58% 1009.9 hPa - - - -
1777523468 21.11° C 56% 1010.4 hPa - - - -
1777519868 21.11° C 56% 1010.8 hPa - - - -
1777516268 22.22° C 54% 1010.9 hPa - - - -
1777512668 23.33° C 51% 1010.8 hPa - - - -
1777509068 22.22° C 54% 1010.7 hPa - - - -
1777502465 22.78° C 55% 1010.1 hPa - - - -
1777498865 23.33° C 53% 1009.5 hPa - - - -
1777495265 23.89° C 50% 1009.3 hPa - - - -
1777491665 24.44° C 50% 1009.3 hPa - - - -
1777488065 24.44° C 49% 1009.7 hPa - - - -
1777484465 25° C 49% 1010.5 hPa - - - -
1777480865 22.78° C 56% 1011.5 hPa - - - -
1777477264 23.33° C 53% 1012.2 hPa - - - -
1777473664 22.78° C 55% 1012.9 hPa - - - -
1777470065 22.78° C 56% 1013.1 hPa - - - -
1777462874 22.22° C 58% 1012.6 hPa - - - -
1777459274 22.22° C 58% 1011.8 hPa - - - -
1777455674 22.22° C 58% 1011.5 hPa - - - -
1777452074 22.22° C 58% 1011.7 hPa - - - -
1777448473 22.22° C 58% 1011.9 hPa - - - -
1777444873 22.78° C 56% 1012 hPa - - - -
1777441273 22.78° C 55% 1012.2 hPa - - - -
1777435277 22.78° C 55% 1013 hPa - - - -

* Rain since midnight (hover to see other rain measurements)
** Current wind speed in m/s (hover to see current wind gust speed)